K3ZED-2 Weather Reports


Display with metric or nautical units.
time (UTC)temp
F
wind
direction
speed
MPH
gust
MPH
rain 1hr
in
rain 24hr
in
rain mn
in
humidity
%
barometer
mb
20200406030101 54 211 1.0 5.0 0.00 0.00 0.00 13 1015.1
20200406024513 54 217 2.0 5.0 0.00 0.00 0.00 11 1015.1
20200406023033 54 215 1.0 5.0 0.00 0.00 0.00 9 1015.2
20200406021503 53 238 2.0 4.0 0.00 0.00 0.00 3 1015.3
20200406020208 52 212 0.0 2.0 0.00 0.00 0.00 2 1015.4
20200406014629 51 219 0.0 2.0 0.00 0.00 0.00 1 1015.4
20200406013024 51 219 0.0 0.0 0.00 0.00 0.00 6 1015.3
20200406011555 52 219 0.0 1.0 0.00 0.00 0.00 9 1015.5
20200406010033 53 219 0.0 0.0 0.00 0.00 0.00 17 1015.4
20200406004518 54 219 0.0 1.0 0.00 0.00 0.00 22 1015.2
20200406003131 54 219 0.0 2.0 0.00 0.00 0.00 25 1015.1
20200406001639 55 219 0.0 2.0 0.00 0.00 0.00 28 1015.0
20200406000119 55 218 1.0 3.0 0.00 0.00 0.00 34 1014.8
20200405234616 56 217 0.0 2.0 0.00 0.00 0.00 38 1014.8
20200405233144 57 217 0.0 3.0 0.00 0.00 0.00 42 1014.7
20200405231717 59 212 1.0 4.0 0.00 0.00 0.00 46 1014.7
20200405230046 60 211 2.0 4.0 0.00 0.00 0.00 49 1014.8
20200405224556 62 209 0.0 3.0 0.00 0.00 0.00 50 1014.7
20200405223042 62 209 2.0 5.0 0.00 0.00 0.00 50 1014.8
20200405221534 63 213 2.0 5.0 0.00 0.00 0.00 52 1014.7
20200405220059 64 222 3.0 7.0 0.00 0.00 0.00 53 1014.7
20200405214613 64 225 2.0 5.0 0.00 0.00 0.00 52 1014.8
20200405213012 64 214 3.0 7.0 0.00 0.00 0.00 52 1014.8
20200405211506 64 234 3.0 6.0 0.00 0.00 0.00 52 1014.8
20200405210114 64 223 3.0 6.0 0.00 0.00 0.00 52 1014.9
20200405204642 64 212 1.0 5.0 0.00 0.00 0.00 50 1014.9
20200405203145 65 206 2.0 5.0 0.00 0.00 0.00 52 1014.9
20200405201615 65 197 2.0 6.0 0.00 0.00 0.00 51 1014.9
20200405200117 65 164 1.0 9.0 0.00 0.00 0.00 49 1014.9
20200405194545 64 262 1.0 8.0 0.00 0.00 0.00 48 1015.2
20200405193116 63 229 4.0 7.0 0.00 0.00 0.00 47 1015.3
20200405191547 63 227 2.0 7.0 0.00 0.00 0.00 50 1015.3
20200405190022 63 216 2.0 11.0 0.00 0.00 0.00 49 1015.4
20200405184528 64 259 2.0 7.0 0.00 0.00 0.00 51 1015.6
20200405183014 65 235 2.0 7.0 0.00 0.00 0.00 52 1015.7
20200405181533 65 218 3.0 7.0 0.00 0.00 0.00 50 1015.7
20200405180003 64 248 4.0 9.0 0.00 0.00 0.00 52 1015.9
20200405174631 65 321 4.0 7.0 0.00 0.00 0.00 53 1016.1
20200405173143 65 271 2.0 9.0 0.00 0.00 0.00 53 1016.3
20200405171610 63 209 2.0 8.0 0.00 0.00 0.00 53 1016.4
20200405170125 63 251 4.0 7.0 0.00 0.00 0.00 50 1016.5
20200405164651 63 205 3.0 7.0 0.00 0.00 0.00 53 1016.7
20200405163050 63 310 3.0 6.0 0.00 0.00 0.00 53 1016.8
20200405161624 63 230 2.0 7.0 0.00 0.00 0.00 51 1016.9
20200405160045 61 336 1.0 9.0 0.00 0.00 0.00 53 1017.0
20200405154530 61 290 2.0 7.0 0.00 0.00 0.00 50 1017.3
20200405153018 60 261 2.0 7.0 0.00 0.00 0.00 51 1017.5
20200405151522 59 231 2.0 6.0 0.00 0.00 0.00 45 1017.6
20200405150029 58 294 1.0 6.0 0.00 0.00 0.00 43 1017.7
20200405144505 57 289 2.0 4.0 0.00 0.00 0.00 33 1017.8
20200405143227 56 246 2.0 5.0 0.00 0.00 0.00 32 1017.8
20200405141726 56 267 2.0 4.0 0.00 0.00 0.00 33 1017.8
20200405140127 56 248 1.0 5.0 0.00 0.00 0.00 25 1017.7
20200405134636 55 228 2.0 10.0 0.00 0.00 0.00 18 1017.6
20200405133117 54 259 2.0 5.0 0.00 0.00 0.00 7 1017.8
20200405131554 53 250 1.0 6.0 0.00 0.00 0.00 1 1017.7
20200405130044 52 226 1.0 4.0 0.00 0.00 0.00 1 1017.8
20200405124537 51 239 1.0 5.0 0.00 0.00 0.00 1 1017.9
20200405123043 50 217 2.0 6.0 0.00 0.00 0.00 1 1017.9
20200405121530 49 232 2.0 5.0 0.00 0.00 0.00 1 1017.8
20200405120114 48 229 0.0 3.0 0.00 0.00 0.00 1 1017.8
20200405114534 48 229 1.0 3.0 0.00 0.00 0.00 1 1017.7
20200405113009 47 229 1.0 2.0 0.00 0.00 0.00 1 1017.5
20200405111513 47 227 0.0 3.0 0.00 0.00 0.00 1 1017.3
20200405110250 46 228 0.0 2.0 0.00 0.00 0.00 1 1017.1
20200405104626 46 228 1.0 3.0 0.00 0.00 0.00 1 1017.2
20200405103211 46 228 0.0 2.0 0.00 0.00 0.00 1 1017.1
20200405101618 46 228 0.0 1.0 0.00 0.00 0.00 1 1016.9
20200405100114 46 227 0.0 1.0 0.00 0.00 0.00 1 1016.7
20200405094621 47 227 0.0 0.0 0.00 0.00 0.00 1 1016.6
20200405093132 48 227 0.0 1.0 0.00 0.00 0.00 1 1016.6
20200405091608 48 227 0.0 3.0 0.00 0.00 0.00 1 1016.5
20200405090055 49 227 0.0 1.0 0.00 0.00 0.00 1 1016.4
20200405084626 49 227 1.0 3.0 0.00 0.00 0.00 1 1016.5
20200405083053 49 228 0.0 2.0 0.00 0.00 0.00 1 1016.4
20200405081523 49 227 0.0 3.0 0.00 0.00 0.00 1 1016.5
20200405080057 49 227 0.0 3.0 0.00 0.00 0.00 1 1016.5
20200405074533 49 227 0.0 3.0 0.00 0.00 0.00 1 1016.6
20200405073011 49 227 0.0 2.0 0.00 0.00 0.00 1 1016.7
20200405071509 49 227 0.0 2.0 0.00 0.00 0.00 1 1016.7
20200405070155 49 226 0.0 4.0 0.00 0.00 0.00 1 1016.7
20200405064629 50 232 0.0 3.0 0.00 0.00 0.00 1 1016.7
20200405063136 50 232 0.0 4.0 0.00 0.00 0.00 1 1016.8
20200405061635 49 257 1.0 4.0 0.00 0.00 0.00 1 1016.7
20200405060051 49 229 0.0 4.0 0.00 0.00 0.00 1 1016.8
20200405054553 49 269 0.0 3.0 0.00 0.00 0.00 1 1016.8
20200405053054 49 272 0.0 1.0 0.00 0.00 0.00 1 1016.8
20200405051542 49 272 0.0 2.0 0.00 0.00 0.00 1 1016.9
20200405050042 48 272 0.0 2.0 0.00 0.00 0.00 1 1016.8
20200405044520 48 300 1.0 2.0 0.00 0.00 0.00 1 1016.8
20200405043021 47 338 0.0 0.0 0.00 0.00 0.00 1 1017.0
20200405041523 47 338 0.0 0.0 0.00 0.00 0.00 1 1016.9
20200405040021 46 338 0.0 0.0 0.00 0.00 0.00 1 1017.0
20200405034647 46 338 0.0 0.0 0.00 0.00 0.00 1 1017.0
20200405033126 46 338 0.0 0.0 0.00 0.00 0.00 1 1017.0
20200405031600 46 338 0.0 0.0 0.00 0.00 0.00 1 1017.0